Powrót do katalogu

DELTA 1 DEB

AktywnyPO
NORAD 21933·DEBRIS·🇺🇸 United States

Wystrzelony Jun 12, 1975 z Vandenberg Space Force Base

Loading…

Następne Przeloty (najbliższe 24 godziny)

TLE

ŚwieżeSource: Space-Track

Epoka: Sep 12, 2026, 01:44 UTC

1 21933U 75052JT  26255.07284811  .00000038  00000-0  16427-3 0  9992
2 21933  99.3151 305.1214 0158739  97.3745 293.6226 13.23652255683733

Śledź DELTA 1 DEB w czasie rzeczywistym z AllMySat

Download on the App Store